Flag for Australia Weather past 2 weeks in Townsville, Queensland, Australia

77 °F

Partly cloudy.

Feels Like: 78 °F
Forecast: 78 / 84 °F
Wind: 8 mph from Southeast

Location: Townsville Amo

Current Time: Nov 26, 2015 at 4:59:12 AM

Latest Report: Nov 26, 2015 at 4:30 AM

Visibility: N/A

Pressure: 29.86 "Hg

Humidity: 83%

Dew point: 72 °F

Location of TownsvilleLocation

Historic Weather in Townsville — Graph


Townsville temperature yesterday

Maximum temperature yesterday: 88 °F (at 11:30 AM)
Minimum temperature yesterday: 77 °F (at 4:00 AM)
Average temperature yesterday: 82 °F

Past Weeks' High & Low Weather Summary

High90 °F (Nov 14, 2:30 PM)94% (Nov 17, 8:30 AM)30.04 "Hg (Nov 17, 8:30 AM)
Low70 °F (Nov 19, 6:00 AM)27% (Nov 19, 9:30 AM)29.68 "Hg (Nov 15, 3:00 PM)
Average81 °F69%29.89 "Hg
* Reported Nov 11 4:04 AM — Nov 26 4:00 AM, Townsville, Weather by CustomWeather, © 2015

Note: Actual official high and low records may vary slightly from our data, if they occured in-between our weather recording intervals... More about our weather records


Townsville weather history for previous 24 hours

Time TempWeatherWind HumidityBarometerVisibility
4:00 AM
Thu, Nov 26
79 °FPassing clouds.6 mph79%29.86 "HgN/A
3:00 AM79 °FMostly cloudy.9 mph79%29.86 "HgN/A
2:30 AM79 °FPassing clouds.10 mph79%29.86 "HgN/A
2:00 AM79 °FPartly cloudy.9 mph74%29.86 "HgN/A
1:30 AM79 °FPassing clouds.10 mph79%29.86 "HgN/A
1:00 AM79 °FPartly cloudy.13 mph79%29.86 "HgN/A
12:30 AM81 °FPartly cloudy.10 mph74%29.89 "HgN/A
12:00 AM81 °FPassing clouds.13 mph74%29.89 "HgN/A
11:30 PM
Wed, Nov 25
81 °FPartly cloudy.13 mph74%29.89 "HgN/A
11:00 PM81 °FPassing clouds.13 mph74%29.92 "HgN/A
10:30 PM81 °FMostly cloudy.12 mph74%29.92 "HgN/A
10:00 PM81 °FPassing clouds.15 mph74%29.92 "HgN/A
9:30 PM81 °FPassing clouds.10 mph74%29.89 "HgN/A
9:00 PM81 °FPartly cloudy.10 mph74%29.89 "HgN/A
8:30 PM81 °FPassing clouds.10 mph79%29.89 "HgN/A
8:00 PM81 °FPassing clouds.10 mph74%29.89 "HgN/A
7:30 PM81 °FClear.10 mph74%29.89 "HgN/A
7:00 PM81 °FClear.9 mph74%29.89 "HgN/A
6:30 PM81 °FSunny.13 mph74%29.86 "HgN/A
6:00 PM82 °FSunny.12 mph70%29.86 "HgN/A
5:00 PM84 °FPassing clouds.14 mph62%29.86 "HgN/A
4:00 PM84 °FPassing clouds.14 mph62%29.83 "HgN/A
3:00 PM86 °FPassing clouds.13 mph52%29.86 "HgN/A
2:30 PM86 °FPassing clouds.13 mph55%29.86 "HgN/A
2:00 PM86 °FPassing clouds.14 mph52%29.86 "HgN/A
1:30 PM86 °FPassing clouds.17 mph55%29.89 "HgN/A
1:00 PM86 °FPassing clouds.14 mph52%29.89 "HgN/A
12:30 PM86 °FPassing clouds.14 mph52%29.89 "HgN/A
12:00 PM86 °FPassing clouds.14 mph49%29.92 "HgN/A
11:30 AM88 °FPassing clouds.14 mph49%29.92 "HgN/A
11:00 AM86 °FPassing clouds.13 mph49%29.92 "HgN/A
10:30 AM86 °FPassing clouds.12 mph52%29.92 "HgN/A
10:00 AM84 °FPassing clouds.12 mph55%29.92 "HgN/A
9:30 AM84 °FPassing clouds.14 mph55%29.92 "HgN/A
9:00 AM82 °FPassing clouds.13 mph58%29.95 "HgN/A
8:30 AM84 °FPassing clouds.13 mph55%29.92 "HgN/A
8:00 AM82 °FPassing clouds.13 mph58%29.92 "HgN/A
7:30 AM82 °FPassing clouds.15 mph55%29.92 "HgN/A
7:00 AM82 °FPassing clouds.14 mph58%29.92 "HgN/A
6:30 AM81 °FPassing clouds.13 mph58%29.89 "HgN/A
6:00 AM79 °FPassing clouds.12 mph65%29.89 "HgN/A
5:30 AM79 °FScattered clouds.10 mph65%29.86 "HgN/A
5:00 AM79 °FPassing clouds.13 mph65%29.86 "HgN/A
4:30 AM79 °FPassing clouds.12 mph65%29.86 "HgN/A
4:00 AM77 °FClear.10 mph69%29.86 "HgN/A
Weather by CustomWeather, © 2015

See weather overviewHow to use our weather pages